Hlavní strana
METAR-TAF:

METAR-TAF

Letiště :

Sikeston, Missouri, Spojené státy americké

zeměpisná šířka: 36-53-56N, zeměpisná délka: 089-33-42W, výška: 96 m

Aktuální stav počasí

Zpráva byla vytvořena před 16 minutami, v 01:35 UTC
Bezvětří
Teplota 8°C
Vlhkost vzduchu 71%
Tlak 1021 hPa
Viditelnost: 16.1 km
Polojasno ve výšce 8500 ft

METAR: KSIK 220135Z AUTO 00000KT 10SM SCT085 08/03 A3016 RMK AO2 TSNO

Čas: 20:51 (01:51 UTC)


TAF: chybějící

Stav a předpovědi počasí z více než 4 000 letišť (zprávy METAR a TAF).

Červené a žluté tečky na mapě představují dostupné meteorologické stanice.

Když kurzor umístíte na tečku, zobrazí se název stanice.

Pak kliknutím zobrazíte stav a předpověď počasí.

Chcete-li změnit mapu, kliknutím na zelené tlačítko se znaménkem +mapu přiblížíte, kliknutím na zelené tlačítko se znaménkem – mapu oddálíte a kliknutím na zelené šipky přejdete na sousední mapy.


METAR-TAF: